Hallock, MN

11:40 PM CDT on March 23, 2017 (GMT -0500)
Hallock Municipal

Weather History for KHCO - December, 2012

Change the Weather History Date:

Monday, December 3, 2012

  Actual Average Record
Temperature  
Mean Temperature 26 °F -  
Max Temperature 39 °F 19 °F 54 °F (1982)
Min Temperature 12 °F 3 °F -25 °F (1964)
Degree Days  
Heating Degree Days 40    
Moisture  
Dew Point 27 °F    
Average Humidity 85    
Maximum Humidity 100    
Minimum Humidity 68    
Precipitation  
Precipitation 0.05 in - - ()
Sea Level Pressure  
Sea Level Pressure 29.52 in    
Wind  
Wind Speed 14 mph (WSW)    
Max Wind Speed 29 mph    
Max Gust Speed 38 mph    
Visibility 9 miles    
Events Rain    
Averages and records for this station are not official NWS values.
T = Trace of Precipitation, MM = Missing Value Source: NWS Daily Summary

Daily Weather History Graph

Daily Weather History Graph

Search for Another Location

Airport or City:

Trip Planner

Search our weather history database for the weather conditions in past years. The results will help you decide how hot, cold, wet, or windy it might be!

Date:

Astronomy

Dec. 03, 2012 Rise Set
Actual Time 8:02 AM CST 4:32 PM CST
Civil Twilight 7:26 AM CST 5:09 PM CST
Nautical Twilight 6:46 AM CST 5:49 PM CST
Astronomical Twilight 6:08 AM CST 6:27 PM CST
Moon 9:35 PM CST (12/3) 11:14 AM CST (12/3)
Length of Visible Light 9h 43m
Length of Day
8h 30m
Waning Gibbous, 78% of the Moon is Illuminated
Dec 3
Waning Gibbous
Dec 6
Last Quarter
Dec 13
New
Dec 19
First Quarter
Dec 28
Full

Hourly Weather History & Observations

Time (CST) Temp. Windchill Dew Point Humidity Pressure Visibility Wind Dir Wind Speed Gust Speed Precip Events Conditions
12:14 AM 39.2 °F 30.8 °F 35.6 °F 87% 29.35 in 10.0 mi SE 15.0 mph - N/A   Clear
12:34 AM 39.2 °F 32.0 °F 35.6 °F 87% 29.34 in 10.0 mi SE 11.5 mph - N/A   Clear
12:54 AM 39.2 °F 33.0 °F 35.6 °F 87% 29.35 in 10.0 mi SE 9.2 mph - N/A   Clear
1:14 AM 37.4 °F 32.8 °F 35.6 °F 93% 29.34 in 7.0 mi SSE 5.8 mph - N/A   Clear
1:34 AM 37.4 °F 30.8 °F 35.6 °F 93% 29.34 in 7.0 mi SSE 9.2 mph - N/A   Clear
1:54 AM 37.4 °F 30.8 °F 35.6 °F 93% 29.33 in 10.0 mi SSE 9.2 mph - N/A   Clear
2:14 AM 37.4 °F 29.8 °F 35.6 °F 93% 29.32 in 10.0 mi SSE 11.5 mph - N/A   Clear
2:34 AM 37.4 °F 30.3 °F 35.6 °F 93% 29.32 in 10.0 mi SSE 10.4 mph - N/A   Clear
2:54 AM 37.4 °F 29.3 °F 35.6 °F 93% 29.32 in 10.0 mi SSE 12.7 mph - N/A   Clear
3:14 AM 37.4 °F 30.3 °F 35.6 °F 93% 29.33 in 10.0 mi SSE 10.4 mph - N/A   Scattered Clouds
3:34 AM 37.4 °F 30.8 °F 35.6 °F 93% 29.32 in 10.0 mi SSE 9.2 mph - N/A   Scattered Clouds
3:54 AM 37.4 °F 30.3 °F 35.6 °F 93% 29.31 in 10.0 mi SSE 10.4 mph - N/A   Clear
4:13 AM 37.4 °F 29.3 °F 35.6 °F 93% 29.30 in 10.0 mi SSE 12.7 mph - N/A   Clear
4:34 AM 37.4 °F 29.8 °F 35.6 °F 93% 29.31 in 10.0 mi SSE 11.5 mph - N/A   Scattered Clouds
4:54 AM 37.4 °F 30.3 °F 35.6 °F 93% 29.31 in 10.0 mi SSE 10.4 mph - N/A   Scattered Clouds
5:14 AM 37.4 °F 30.3 °F 35.6 °F 93% 29.31 in 10.0 mi South 10.4 mph - N/A   Clear
5:34 AM 37.4 °F 30.3 °F 37.4 °F 100% 29.31 in 10.0 mi South 10.4 mph - N/A   Scattered Clouds
5:54 AM 37.4 °F 29.3 °F 35.6 °F 93% 29.33 in 10.0 mi South 12.7 mph - N/A   Scattered Clouds
6:14 AM 37.4 °F 30.8 °F 35.6 °F 93% 29.33 in 10.0 mi SSW 9.2 mph - N/A   Scattered Clouds
6:34 AM 37.4 °F 30.8 °F 35.6 °F 93% 29.34 in 10.0 mi SSW 9.2 mph - N/A   Mostly Cloudy
6:54 AM 37.4 °F 30.8 °F 35.6 °F 93% 29.35 in 10.0 mi SW 9.2 mph - N/A   Light Drizzle
7:14 AM 37.4 °F 29.8 °F 35.6 °F 93% 29.35 in 10.0 mi West 11.5 mph - N/A   Drizzle
7:35 AM 37.4 °F 30.8 °F 35.6 °F 93% 29.34 in 10.0 mi NNW 9.2 mph - N/A Rain Rain
7:54 AM 37.4 °F 29.8 °F 35.6 °F 93% 29.36 in 10.0 mi WNW 11.5 mph - N/A   Light Drizzle
8:14 AM 37.4 °F 31.4 °F 35.6 °F 93% 29.39 in 10.0 mi NW 8.1 mph - N/A   Light Drizzle
8:34 AM 37.4 °F 29.8 °F 35.6 °F 93% 29.39 in 4.0 mi NW 11.5 mph - 0.01 in Rain Light Rain
9:14 AM 35.6 °F 29.2 °F 35.6 °F 100% 29.40 in 3.0 mi NW 8.1 mph - 0.02 in Rain Light Rain
9:34 AM 35.6 °F 32.8 °F 35.6 °F 100% 29.42 in 3.0 mi West 3.5 mph - 0.03 in Rain Light Rain
9:54 AM 35.6 °F 32.8 °F 35.6 °F 100% 29.43 in 5.0 mi WSW 3.5 mph - 0.04 in Rain Light Rain
10:14 AM 35.6 °F 31.7 °F 35.6 °F 100% 29.44 in 4.0 mi SW 4.6 mph - N/A   Light Drizzle
10:34 AM 35.6 °F 30.7 °F 35.6 °F 100% 29.45 in 3.0 mi SW 5.8 mph - N/A   Light Drizzle
10:54 AM 35.6 °F 31.7 °F 35.6 °F 100% 29.46 in 3.0 mi SSW 4.6 mph - N/A Rain Light Rain
11:14 AM 35.6 °F 31.7 °F 35.6 °F 100% 29.46 in 3.0 mi SSW 4.6 mph - N/A   Mostly Cloudy
11:34 AM 37.4 °F 33.8 °F 37.4 °F 100% 29.46 in 3.0 mi SSW 4.6 mph - N/A   Scattered Clouds
11:54 AM 37.4 °F 30.3 °F 37.4 °F 100% 29.47 in 5.0 mi WSW 10.4 mph - N/A   Mostly Cloudy
12:14 PM 37.4 °F 29.3 °F 37.4 °F 100% 29.47 in 10.0 mi West 12.7 mph - N/A   Overcast
12:34 PM 37.4 °F 28.5 °F 35.6 °F 93% 29.48 in 10.0 mi West 15.0 mph - N/A   Overcast
12:54 PM 37.4 °F 27.2 °F 35.6 °F 93% 29.49 in 10.0 mi West 19.6 mph 26.5 mph N/A   Mostly Cloudy
1:14 PM 37.4 °F 25.9 °F 35.6 °F 93% 29.50 in 10.0 mi West 25.3 mph 31.1 mph N/A   Mostly Cloudy
1:34 PM 37.4 °F 25.6 °F 30.2 °F 75% 29.51 in 10.0 mi WNW 26.5 mph 35.7 mph N/A   Mostly Cloudy
1:54 PM 35.6 °F 24.8 °F 30.2 °F 81% 29.52 in 10.0 mi WNW 19.6 mph 23.0 mph N/A   Overcast
2:10 PM 35.6 °F 25.2 °F 30.2 °F 81% 29.53 in 10.0 mi WNW 18.4 mph 24.2 mph N/A   Overcast
2:34 PM 33.8 °F 22.2 °F 26.6 °F 75% 29.53 in - WNW 20.7 mph 26.5 mph N/A   Unknown
2:54 PM 32.0 °F 19.8 °F 26.6 °F 80% 29.54 in 10.0 mi WNW 20.7 mph 25.3 mph N/A   Overcast
3:14 PM 32.0 °F 18.9 °F 26.6 °F 80% 29.55 in 10.0 mi WNW 24.2 mph 31.1 mph N/A   Overcast
3:34 PM 30.2 °F 15.4 °F 21.2 °F 69% 29.58 in 10.0 mi WNW 28.8 mph 38.0 mph N/A   Overcast
3:54 PM 28.4 °F 13.3 °F 19.4 °F 69% 29.59 in 10.0 mi WNW 27.6 mph 35.7 mph N/A   Scattered Clouds
4:14 PM 26.6 °F 11.4 °F 19.4 °F 74% 29.61 in 10.0 mi West 25.3 mph 34.5 mph N/A   Scattered Clouds
4:31 PM 26.6 °F 11.7 °F 19.4 °F 74% 29.63 in 10.0 mi WNW 24.2 mph 34.5 mph N/A   Mostly Cloudy
4:55 PM 24.8 °F 10.0 °F 17.6 °F 74% 29.64 in - West 21.9 mph 27.6 mph N/A   Unknown
5:14 PM 24.8 °F 9.0 °F 15.8 °F 69% 29.65 in 10.0 mi WNW 25.3 mph 34.5 mph N/A   Overcast
5:34 PM 23.0 °F 6.0 °F 15.8 °F 74% 29.66 in 10.0 mi West 27.6 mph 34.5 mph N/A   Overcast
5:54 PM 23.0 °F 8.7 °F 15.8 °F 74% 29.68 in 10.0 mi West 18.4 mph 32.2 mph N/A   Overcast
6:14 PM 21.2 °F 5.2 °F 15.8 °F 80% 29.70 in 10.0 mi West 21.9 mph 31.1 mph N/A   Overcast
6:34 PM 21.2 °F 4.5 °F 15.8 °F 80% 29.70 in 10.0 mi WNW 24.2 mph 32.2 mph N/A   Overcast
6:55 PM 21.2 °F 3.9 °F 12.2 °F 68% 29.72 in 10.0 mi WNW 26.5 mph 34.5 mph N/A   Overcast
7:14 PM 21.2 °F 3.9 °F 12.2 °F 68% 29.74 in 10.0 mi WNW 26.5 mph 29.9 mph N/A   Overcast
7:34 PM 19.4 °F 1.4 °F 12.2 °F 74% 29.74 in 10.0 mi West 26.5 mph 32.2 mph N/A   Overcast
7:55 PM 19.4 °F 1.8 °F 10.4 °F 68% 29.76 in 10.0 mi West 25.3 mph 31.1 mph N/A   Overcast
8:14 PM 19.4 °F 2.5 °F 10.4 °F 68% 29.77 in 10.0 mi West 23.0 mph 31.1 mph N/A   Overcast
8:34 PM 17.6 °F 0.5 °F 10.4 °F 73% 29.79 in 10.0 mi WNW 21.9 mph 28.8 mph N/A   Overcast
8:55 PM 17.6 °F -1.0 °F 8.6 °F 68% 29.80 in 10.0 mi WNW 26.5 mph 35.7 mph N/A   Mostly Cloudy
9:14 PM 15.8 °F -3.1 °F 8.6 °F 73% 29.81 in 10.0 mi NW 25.3 mph 32.2 mph N/A   Scattered Clouds
9:34 PM 15.8 °F -1.9 °F 8.6 °F 73% 29.82 in 10.0 mi WNW 21.9 mph 27.6 mph N/A   Scattered Clouds
9:55 PM 15.8 °F -2.3 °F 6.8 °F 68% 29.84 in 10.0 mi NW 23.0 mph 35.7 mph N/A   Mostly Cloudy
10:14 PM 14.0 °F -5.1 °F 6.8 °F 73% 29.85 in 10.0 mi WNW 24.2 mph - N/A   Scattered Clouds
10:34 PM 14.0 °F -3.4 °F 6.8 °F 73% 29.86 in 10.0 mi WNW 19.6 mph 26.5 mph N/A   Clear
10:55 PM 12.2 °F -7.5 °F 6.8 °F 79% 29.87 in 10.0 mi WNW 24.2 mph 29.9 mph N/A   Clear
11:14 PM 12.2 °F -6.3 °F 6.8 °F 79% 29.87 in 10.0 mi WNW 20.7 mph 28.8 mph N/A   Clear
11:34 PM 12.2 °F -4.8 °F 5.0 °F 73% 29.90 in 10.0 mi WNW 17.3 mph 25.3 mph N/A   Clear